Terminal Aerodrome Forecast
Issued by NWS Charleston, WV

Current Version | Previous Version | Graphics & Text | Print | Product List | Glossary On
Versions: 1 2 3 4 5 6 7 8 9 10 11 12 13 14 15 16 17 18 19 20 21 22 23 24 25 26 27 28 29 30 31 32 33 34
000
FTUS41 KRLX 201200 AAB
TAFEKN
TAF AMD
KEKN 201256Z 2013/2112 00000KT P6SM SCT003
     FM201500 24004KT P6SM BKN070
     FM202100 24008G15KT P6SM BKN050
     FM210000 22005KT P6SM BKN050
     FM210500 24005KT 5SM BR OVC020=

USA.gov is the U.S. government's official web portal to all federal, state and local government web resources and services.